H1 CPF 2 NER 2025 12 14 9 348 01 glonass145 H2 2213001 9145 54031 2025 12 14 0 0 0 2025 12 17 23 45 0 900 1 1 0 0 0 1 H9 10 0 61023 0.00000 0 -16358527.326 -15838255.314 -11555933.405 10 0 61023 900.00000 0 -17152761.969 -16807254.694 -8682355.802 10 0 61023 1800.00000 0 -17792741.685 -17428439.377 -5640659.550 10 0 61023 2700.00000 0 -18224086.295 -17716327.267 -2489754.407 10 0 61023 3600.00000 0 -18398228.415 -17697213.308 709351.848 10 0 61023 4500.00000 0 -18274605.955 -17407862.528 3894725.027 10 0 61023 5400.00000 0 -17822535.890 -16893780.040 7004693.596 10 0 61023 6300.00000 0 -17022690.597 -16207130.744 9979032.904 10 0 61023 7200.00000 0 -15868114.459 -15404395.937 12760122.373 10 0 61023 8100.00000 0 -14364737.273 -14543864.857 15294053.936 10 0 61023 9000.00000 0 -12531361.735 -13683066.017 17531670.957 10 0 61023 9900.00000 0 -10399123.860 -12876245.675 19429518.017 10 0 61023 10800.00000 0 -8010446.914 -12171998.921 20950683.606 10 0 61023 11700.00000 0 -5417530.281 -11611152.652 22065519.674 10 0 61023 12600.00000 0 -2680433.981 -11224989.393 22752224.040 10 0 61023 13500.00000 0 135163.676 -11033886.968 22997274.127 10 0 61023 14400.00000 0 2960444.071 -11046431.944 22795703.029 10 0 61023 15300.00000 0 5726060.545 -11259045.146 22151211.658 10 0 61023 16200.00000 0 8364777.642 -11656136.358 21076113.661 10 0 61023 17100.00000 0 10814028.392 -12210783.111 19591112.822 10 0 61023 18000.00000 0 13018283.503 -12885906.409 17724915.876 10 0 61023 18900.00000 0 14931133.669 -13635895.052 15513686.862 10 0 61023 19800.00000 0 16516997.739 -14408610.909 13000352.428 10 0 61023 20700.00000 0 17752384.778 -15147690.852 10233770.760 10 0 61023 21600.00000 0 18626656.649 -15795047.889 7267779.859 10 0 61023 22500.00000 0 19142258.807 -16293465.016 4160143.727 10 0 61023 23400.00000 0 19314409.565 -16589170.783 971417.585 10 0 61023 24300.00000 0 19170261.350 -16634285.956 -2236244.749 10 0 61023 25200.00000 0 18747570.202 -16389035.897 -5400316.733 10 0 61023 26100.00000 0 18092930.976 -15823633.225 -8459132.639 10 0 61023 27000.00000 0 17259654.470 -14919749.463 -11353103.129 10 0 61023 27900.00000 0 16305377.989 -13671512.170 -14025887.598 10 0 61023 28800.00000 0 15289512.163 -12085984.547 -16425499.205 10 0 61023 29700.00000 0 14270633.496 -10183106.826 -18505320.219 10 0 61023 30600.00000 0 13303933.961 -7995101.822 -20225007.600 10 0 61023 31500.00000 0 12438835.975 -5565369.835 -21551271.338 10 0 61023 32400.00000 0 11716873.412 -2946919.587 -22458511.062 10 0 61023 33300.00000 0 11169927.419 -200401.180 -22929299.613 10 0 61023 34200.00000 0 10818890.259 2608176.548 -22954705.457 10 0 61023 35100.00000 0 10672811.965 5409949.186 -22534449.140 10 0 61023 36000.00000 0 10728563.992 8135816.681 -21676892.146 10 0 61023 36900.00000 0 10971032.267 10719071.879 -20398859.680 10 0 61023 37800.00000 0 11373829.923 13097929.684 -18725301.834 10 0 61023 38700.00000 0 11900498.397 15217853.343 -16688800.482 10 0 61023 39600.00000 0 12506145.432 17033583.001 -14328931.866 10 0 61023 40500.00000 0 13139450.548 18510784.177 -11691497.403 10 0 61023 41400.00000 0 13744953.451 19627249.628 -8827637.419 10 0 61023 42300.00000 0 14265529.315 20373606.424 -5792844.670 10 0 61023 43200.00000 0 14644947.168 20753500.525 -2645896.214 10 0 61023 44100.00000 0 14830404.306 20783252.593 552276.333 10 0 61023 45000.00000 0 14774930.585 20491000.489 3739756.967 10 0 61023 45900.00000 0 14439561.880 19915365.076 6854833.961 10 0 61023 46800.00000 0 13795191.404 19103695.459 9837184.823 10 0 61023 47700.00000 0 12824020.904 18109967.162 12629035.283 10 0 61023 48600.00000 0 11520550.118 16992420.997 15176270.602 10 0 61023 49500.00000 0 9892061.879 15811041.086 17429478.361 10 0 61023 50400.00000 0 7958581.019 14624977.111 19344903.056 10 0 61023 51300.00000 0 5752306.782 13490018.287 20885294.465 10 0 61023 52200.00000 0 3316540.239 12456224.419 22020633.584 10 0 61023 53100.00000 0 704148.990 11565813.104 22728722.079 10 0 61023 54000.00000 0 -2024369.292 10851391.634 22995623.544 10 0 61023 54900.00000 0 -4803146.211 10334608.069 22815947.477 10 0 61023 55800.00000 0 -7563432.886 10025278.707 22192969.549 10 0 61023 56700.00000 0 -10236219.098 9921029.435 21138584.746 10 0 61023 57600.00000 0 -12754873.530 10007467.117 19673092.926 10 0 61023 58500.00000 0 -15057695.714 10258874.867 17824819.565 10 0 61023 59400.00000 0 -17090273.451 10639402.942 15629577.692 10 0 61023 60300.00000 0 -18807547.028 11104705.769 13129980.231 10 0 61023 61200.00000 0 -20175493.300 11603956.365 10374615.299 10 0 61023 62100.00000 0 -21172358.452 12082152.878 7417100.009 10 0 61023 63000.00000 0 -21789387.100 12482619.058 4315031.219 10 0 61023 63900.00000 0 -22031016.670 12749591.628 1128854.222 10 0 61023 64800.00000 0 -21914528.887 12830783.440 -2079327.581 10 0 61023 65700.00000 0 -21469173.500 12679812.003 -5246977.484 10 0 61023 66600.00000 0 -20734802.105 12258388.596 -8312359.243 10 0 61023 67500.00000 0 -19760071.084 11538173.466 -11215754.091 10 0 61023 68400.00000 0 -18600291.114 10502217.037 -13900635.777 10 0 61023 69300.00000 0 -17315015.797 9145925.049 -16314779.404 10 0 61023 70200.00000 0 -15965472.785 7477506.082 -18411281.670 10 0 61023 71100.00000 0 -14611947.076 5517882.250 -20149472.260 10 0 61023 72000.00000 0 -13311227.656 3300066.780 -21495698.805 10 0 61023 72900.00000 0 -12114225.273 868034.797 -22423970.778 10 0 61023 73800.00000 0 -11063861.225 -1724865.140 -22916450.826 10 0 61023 74700.00000 0 -10193314.974 -4417892.088 -22963785.275 10 0 61023 75600.00000 0 -9524702.744 -7145203.669 -22565268.821 10 0 61023 76500.00000 0 -9068240.736 -9838361.710 -21728841.648 10 0 61023 77400.00000 0 -8821926.103 -12428948.848 -20470920.271 10 0 61023 78300.00000 0 -8771747.003 -14851188.246 -18816066.503 10 0 61023 79200.00000 0 -8892411.101 -17044458.796 -16796501.683 10 0 61023 80100.00000 0 -9148560.329 -18955602.792 -14451476.067 10 0 61023 81000.00000 0 -9496419.736 -20540931.824 -11826505.748 10 0 61023 81900.00000 0 -9885810.374 -21767849.261 -8972491.735 10 0 61023 82800.00000 0 -10262441.252 -22616023.465 -5944737.948 10 0 61023 83700.00000 0 -10570383.951 -23078064.474 -2801886.609 10 0 61023 84600.00000 0 -10754626.008 -23159677.266 395208.996 10 0 61023 85500.00000 0 -10763595.974 -22879286.261 3584653.241 10 0 61024 0.00000 0 -10551554.237 -22267147.503 6704696.180 10 0 61024 900.00000 0 -10080749.050 -21363985.613 9694920.346 10 0 61024 1800.00000 0 -9323247.318 -20219213.389 12497399.829 10 0 61024 2700.00000 0 -8262362.400 -18888807.130 15057815.553 10 0 61024 3600.00000 0 -6893618.270 -17432926.801 17326501.592 10 0 61024 4500.00000 0 -5225208.173 -15913379.634 19259404.507 10 0 61024 5400.00000 0 -3277926.783 -14391032.582 20818937.302 10 0 61024 6300.00000 0 -1084576.464 -12923281.159 21974711.700 10 0 61024 7200.00000 0 1311129.958 -11561680.029 22704134.579 10 0 61024 8100.00000 0 3856126.745 -10349834.112 22992856.737 10 0 61024 9000.00000 0 6489950.698 -9321638.424 22835064.752 10 0 61024 9900.00000 0 9147015.363 -8499940.561 22233609.394 10 0 61024 10800.00000 0 11759111.198 -7895682.376 21199966.984 10 0 61024 11700.00000 0 14258029.068 -7507557.511 19754033.119 10 0 61024 12600.00000 0 16578198.589 -7322199.968 17923751.366 10 0 61024 13500.00000 0 18659231.632 -7314896.510 15744582.746 10 0 61024 14400.00000 0 20448264.607 -7450793.474 13258825.116 10 0 61024 15300.00000 0 21902000.969 -7686547.381 10514794.797 10 0 61024 16200.00000 0 22988367.592 -7972349.467 7565885.900 10 0 61024 17100.00000 0 23687714.647 -8254237.948 4469525.641 10 0 61024 18000.00000 0 23993507.810 -8476599.048 1286046.549 10 0 61024 18900.00000 0 23912483.254 -8584749.353 -1922501.492 10 0 61024 19800.00000 0 23464258.865 -8527488.259 -5093574.890 10 0 61024 20700.00000 0 22680418.532 -8259510.379 -8165370.190 10 0 61024 21600.00000 0 21603109.071 -7743573.779 -11078042.440 10 0 61024 22500.00000 0 20283210.247 -6952330.461 -13774882.802 10 0 61024 23400.00000 0 18778156.626 -5869740.263 -16203431.150 10 0 61024 24300.00000 0 17149504.610 -4492007.385 -18316501.129 10 0 61024 25200.00000 0 15460348.546 -2827999.416 -20073097.342 10 0 61024 26100.00000 0 13772695.662 -899130.986 -21439206.908 10 0 61024 27000.00000 0 12144910.724 1261283.015 -22388450.612 10 0 61024 27900.00000 0 10629337.603 3609177.366 -22902581.987 10 0 61024 28800.00000 0 9270196.847 6091341.143 -22971825.891 10 0 61024 29700.00000 0 8101846.082 8647409.914 -22595051.444 10 0 61024 30600.00000 0 7147474.299 11212162.437 -21779777.376 10 0 61024 31500.00000 0 6418282.637 13718026.493 -20542010.975 10 0 61024 32400.00000 0 5913183.679 16097690.219 -18905924.841 10 0 61024 33300.00000 0 5619029.604 18286711.267 -16903378.481 10 0 61024 34200.00000 0 5511357.620 20226016.469 -14573294.511 10 0 61024 35100.00000 0 5555619.672 21864189.439 -11960901.705 10 0 61024 36000.00000 0 5708843.531 23159452.443 -9116859.443 10 0 61024 36900.00000 0 5921654.592 24081261.512 -6096280.199 10 0 61024 37800.00000 0 6140572.971 24611449.725 -2957668.504 10 0 61024 38700.00000 0 6310489.153 24744872.227 238203.724 10 0 61024 39600.00000 0 6377214.143 24489527.000 3429464.374 10 0 61024 40500.00000 0 6289997.031 23866146.965 6554328.993 10 0 61024 41400.00000 0 6003904.210 22907280.748 9552287.089 10 0 61024 42300.00000 0 5481960.151 21655900.447 12365264.628 10 0 61024 43200.00000 0 4696959.481 20163594.210 14938740.932 10 0 61024 44100.00000 0 3632873.529 18488418.515 17222799.068 10 0 61024 45000.00000 0 2285791.224 16692499.055 19173089.889 10 0 61024 45900.00000 0 664353.318 14839479.554 20751691.557 10 0 61024 46800.00000 0 -1210340.243 12991924.122 21927848.138 10 0 61024 47700.00000 0 -3305348.248 11208780.837 22678572.979 10 0 61024 48600.00000 0 -5577008.171 9543011.829 22989104.952 10 0 61024 49500.00000 0 -7972514.005 8039488.455 22853208.153 10 0 61024 50400.00000 0 -10431888.626 6733239.416 22273308.404 10 0 61024 51300.00000 0 -12890270.597 5648125.222 21260462.814 10 0 61024 52200.00000 0 -15280421.852 4795994.844 19834161.645 10 0 61024 53100.00000 0 -17535352.752 4176360.419 18021964.955 10 0 61024 54000.00000 0 -19590955.571 3776604.168 15858979.685 10 0 61024 54900.00000 0 -21388536.349 3572709.271 13387186.125 10 0 61024 55800.00000 0 -22877138.645 3530484.083 10654625.972 10 0 61024 56700.00000 0 -24015560.961 3607227.915 7714467.280 10 0 61024 57600.00000 0 -24773982.133 3753767.417 4623964.436 10 0 61024 58500.00000 0 -25135125.312 3916776.409 1443333.981 10 0 61024 59400.00000 0 -25094910.725 4041279.483 -1765430.915 10 0 61024 60300.00000 0 -24662569.215 4073231.536 -4939782.890 10 0 61024 61200.00000 0 -23860211.747 3962061.914 -8017854.283 10 0 61024 62100.00000 0 -22721873.483 3663073.351 -10939676.816 10 0 61024 63000.00000 0 -21292073.608 3139592.177 -13648361.733 10 0 61024 63900.00000 0 -19623952.850 2364777.217 -16091216.095 10 0 61024 64800.00000 0 -17777068.527 1323009.605 -18220772.587 10 0 61024 65700.00000 0 -15814941.232 10804.097 -19995712.420 10 0 61024 66600.00000 0 -13802457.411 -1562796.990 -21381663.418 10 0 61024 67500.00000 0 -11803237.558 -3376363.806 -22351858.386 10 0 61024 68400.00000 0 -9877080.505 -5396746.935 -22887641.922 10 0 61024 69300.00000 0 -8077590.410 -7580245.008 -22978817.085 10 0 61024 70200.00000 0 -6450084.633 -9874222.847 -22623826.611 10 0 61024 71100.00000 0 -5029868.333 -12219112.431 -21829766.557 10 0 61024 72000.00000 0 -3840945.846 -14550713.267 -20612233.406 10 0 61024 72900.00000 0 -2895220.373 -16802696.677 -18995008.694 10 0 61024 73800.00000 0 -2192212.951 -18909210.355 -17009588.029 10 0 61024 74700.00000 0 -1719310.118 -20807475.617 -14694564.183 10 0 61024 75600.00000 0 -1452527.785 -22440270.358 -12094876.330 10 0 61024 76500.00000 0 -1357757.485 -23758195.524 -9260939.926 10 0 61024 77400.00000 0 -1392441.392 -24721631.947 -6247673.735 10 0 61024 78300.00000 0 -1507604.861 -25302307.166 -3113442.392 10 0 61024 79200.00000 0 -1650160.570 -25484407.930 81065.697 10 0 61024 80100.00000 0 -1765387.199 -25265192.770 3274004.014 10 0 61024 81000.00000 0 -1799478.411 -24655079.571 6403555.353 10 0 61024 81900.00000 0 -1702055.037 -23677204.679 9409118.767 10 0 61024 82800.00000 0 -1428534.833 -22366471.802 12232473.773 10 0 61024 83700.00000 0 -942260.060 -20768129.956 14818900.010 10 0 61024 84600.00000 0 -216293.035 -18935939.061 17118231.363 10 0 61024 85500.00000 0 765196.540 -16929998.801 19085824.674 10 0 61025 0.00000 0 2006011.803 -14814330.435 20683424.644 10 0 61025 900.00000 0 3497517.462 -12654310.107 21879909.239 10 0 61025 1800.00000 0 5218754.600 -10514062.485 22651899.124 10 0 61025 2700.00000 0 7137081.326 -8453918.681 22984221.947 10 0 61025 3600.00000 0 9209313.436 -6528046.557 22870219.734 10 0 61025 4500.00000 0 11383320.551 -4782350.725 22311893.486 10 0 61025 5400.00000 0 13600013.289 -3252729.917 21319880.940 10 0 61025 6300.00000 0 15795640.472 -1963764.636 19913266.604 10 0 61025 7200.00000 0 17904301.804 -927890.255 18119226.350 10 0 61025 8100.00000 0 19860571.881 -145090.582 15972512.097 10 0 61025 9000.00000 0 21602125.964 396874.940 13514785.353 10 0 61025 9900.00000 0 23072257.157 721719.820 10793811.683 10 0 61025 10800.00000 0 24222178.621 863386.664 7862531.251 10 0 61025 11700.00000 0 25013012.988 864363.903 4778023.468 10 0 61025 12600.00000 0 25417384.042 773635.173 1600386.426 10 0 61025 13500.00000 0 25420542.521 644349.471 -1608446.139 10 0 61025 14400.00000 0 25020977.664 531312.472 -4785925.995 10 0 61025 15300.00000 0 24230488.206 488407.250 -7870124.267 10 0 61025 16200.00000 0 23073709.799 566055.757 -10800952.317 10 0 61025 17100.00000 0 21587119.184 808830.570 -13521344.321 10 0 61025 18000.00000 0 19817557.920 1253319.766 -15978377.179 10 0 61025 18900.00000 0 17820338.906 1926336.629 -18124305.027 10 0 61025 19800.00000 0 15657016.506 2843550.795 -19917487.829 10 0 61025 20700.00000 0 13392915.016 4008599.096 -21323195.988 10 0 61025 21600.00000 0 11094519.907 5412713.687 -22314275.904 10 0 61025 22500.00000 0 8826841.427 7034882.932 -22871664.514 10 0 61025 23400.00000 0 6650860.639 8842537.920 -22984744.023 10 0 61025 24300.00000 0 4621163.755 10792735.429 -22651531.369 10 0 61025 25200.00000 0 2783862.128 12833787.544 -21878700.124 10 0 61025 26100.00000 0 1174882.802 14907269.609 -20681435.750 10 0 61025 27000.00000 0 -181301.353 16950322.808 -19083128.071 10 0 61025 27900.00000 0 -1272451.423 18898155.650 -17114907.741 10 0 61025 28800.00000 0 -2098822.112 20686640.660 -14815036.219 10 0 61025 29700.00000 0 -2672892.821 22254898.818 -12228161.242 10 0 61025 30600.00000 0 -3018583.562 23547764.997 -9404452.152 10 0 61025 31500.00000 0 -3169990.277 24518032.571 -6398631.510 10 0 61025 32400.00000 0 -3169693.907 25128384.556 -3268921.307 10 0 61025 33300.00000 0 -3066715.098 25352931.582 -75923.503 10 0 61025 34200.00000 0 -2914200.920 25178293.125 3118544.048 10 0 61025 35100.00000 0 -2766941.037 24604177.269 6252634.501 10 0 61025 36000.00000 0 -2678817.746 23643434.847 9265659.544 10 0 61025 36900.00000 0 -2700297.030 22321585.447 12099255.248 10 0 61025 37800.00000 0 -2876066.111 20675834.498 14698504.426 10 0 61025 38700.00000 0 -3242916.972 18753621.537 17012994.444 10 0 61025 39600.00000 0 -3827965.249 16610759.101 18997790.565 10 0 61025 40500.00000 0 -4647280.125 14309238.539 20614306.450 10 0 61025 41400.00000 0 -5704983.996 11914792.780 21831055.268 10 0 61025 42300.00000 0 -6992861.338 9494316.265 22624266.850 10 0 61025 43200.00000 0 -8490495.223 7113248.245 22978358.781 10 0 61025 44100.00000 0 -10165928.079 4833027.403 22886251.729 10 0 61025 45000.00000 0 -11976821.431 2708723.087 22349522.104 10 0 61025 45900.00000 0 -13872068.460 786941.466 21378387.980 10 0 61025 46800.00000 0 -15793793.999 -895906.267 19991527.261 10 0 61025 47700.00000 0 -17679659.912 -2314901.155 18215730.236 10 0 61025 48600.00000 0 -19465380.445 -3457424.760 16085391.876 10 0 61025 49500.00000 0 -21087342.669 -4323444.350 13641852.499 10 0 61025 50400.00000 0 -22485221.903 -4925262.836 10932598.730 10 0 61025 51300.00000 0 -23604481.646 -5286744.098 8010339.732 10 0 61025 52200.00000 0 -24398651.778 -5442046.711 4931976.619 10 0 61025 53100.00000 0 -24831287.768 -5433920.389 1757485.601 10 0 61025 54000.00000 0 -24877526.932 -5311638.313 -1451262.479 10 0 61025 54900.00000 0 -24525174.861 -5128654.520 -4631721.945 10 0 61025 55800.00000 0 -23775275.221 -4940087.383 -7721906.040 10 0 61025 56700.00000 0 -22642138.367 -4800137.863 -10661608.964 10 0 61025 57600.00000 0 -21152827.492 -4759553.877 -13393590.834 10 0 61025 58500.00000 0 -19346124.362 -4863250.008 -15864701.131 10 0 61025 59400.00000 0 -17271018.904 -5148184.745 -18026917.848 10 0 61025 60300.00000 0 -14984787.076 -5641586.082 -19838281.666 10 0 61025 61200.00000 0 -12550738.694 -6359600.970 -21263706.992 10 0 61025 62100.00000 0 -10035730.390 -7306425.746 -22275654.668 10 0 61025 63000.00000 0 -7507548.212 -8473953.913 -22854654.183 10 0 61025 63900.00000 0 -5032269.256 -9841955.619 -22989666.486 10 0 61025 64800.00000 0 -2671711.844 -11378780.728 -22678281.734 10 0 61025 65700.00000 0 -481079.431 -13042555.418 -21926749.552 10 0 61025 66600.00000 0 1493105.237 -14782821.769 -20749842.494 10 0 61025 67500.00000 0 3214691.738 -16542551.547 -19170556.470 10 0 61025 68400.00000 0 4659151.300 -18260450.049 -17219654.749 10 0 61025 69300.00000 0 5814334.240 -19873454.024 -14935064.884 10 0 61025 70200.00000 0 6680706.464 -21319319.950 -12361140.494 10 0 61025 71100.00000 0 7271057.464 -22539195.229 -9547802.080 10 0 61025 72000.00000 0 7609694.061 -23480065.763 -6549573.300 10 0 61025 72900.00000 0 7731155.276 -24096978.470 -3424530.845 10 0 61025 73800.00000 0 7678503.439 -24354946.611 -233187.660 10 0 61025 74700.00000 0 7501263.992 -24230458.863 2962669.516 10 0 61025 75600.00000 0 7253100.912 -23712529.368 6101166.515 10 0 61025 76500.00000 0 6989325.567 -22803244.877 9121529.824 10 0 61025 77400.00000 0 6764343.607 -21517785.771 11965254.057 10 0 61025 78300.00000 0 6629147.133 -19883919.409 14577226.988 10 0 61025 79200.00000 0 6628957.479 -17940985.895 16906791.033 10 0 61025 80100.00000 0 6801117.827 -15738417.305 18908721.190 10 0 61025 81000.00000 0 7173324.609 -13333850.583 20544100.996 10 0 61025 81900.00000 0 7762272.795 -10790911.063 21781079.838 10 0 61025 82800.00000 0 8572773.104 -8176757.318 22595496.984 10 0 61025 83700.00000 0 9597379.817 -5559487.937 22971360.060 10 0 61025 84600.00000 0 10816546.711 -3005516.800 22901168.198 10 0 61025 85500.00000 0 12199306.736 -577025.033 22386072.768 10 0 61026 0.00000 0 13704448.997 1670404.814 21435871.594 10 0 61026 900.00000 0 15282146.625 3689875.397 20068834.919 10 0 61026 1800.00000 0 16875967.003 5444892.071 18311366.436 10 0 61026 2700.00000 0 18425184.008 6910643.412 16197502.918 10 0 61026 3600.00000 0 19867293.958 8074787.923 13768262.084 10 0 61026 4500.00000 0 21140630.442 8937714.966 11070850.020 10 0 61026 5400.00000 0 22186967.411 9512268.708 8157743.099 10 0 61026 6300.00000 0 22953999.967 9822946.982 5085662.146 10 0 61026 7200.00000 0 23397596.898 9904609.416 1914459.307 10 0 61026 8100.00000 0 23483728.428 9800750.444 -1294059.826 10 0 61026 9000.00000 0 23189986.293 9561411.641 -4477354.603 10 0 61026 9900.00000 0 22506630.680 9240823.492 -7573382.904 10 0 61026 10800.00000 0 21437118.852 8894878.391 -10521824.254 10 0 61026 11700.00000 0 19998092.635 8578543.891 -13265267.097 10 0 61026 12600.00000 0 18218825.219 8343327.582 -15750335.728 10 0 61026 13500.00000 0 16140150.905 8234902.447 -17928734.030 10 0 61026 14400.00000 0 13812923.362 8290994.265 -19758185.236 10 0 61026 15300.00000 0 11296067.938 8539620.955 -21203249.396 10 0 61026 16200.00000 0 8654310.280 8997758.338 -22236003.220 10 0 61026 17100.00000 0 5955676.816 9670488.253 -22836569.967 10 0 61026 18000.00000 0 3268871.607 10550664.294 -22993490.294 10 0 61026 18900.00000 0 660638.646 11619108.398 -22703928.252 10 0 61026 19800.00000 0 -1806781.381 12845329.201 -21973709.830 10 0 61026 20700.00000 0 -4077995.358 14188731.222 -20817194.603 10 0 61026 21600.00000 0 -6106507.318 15600263.647 -19256984.074 10 0 61026 22500.00000 0 -7856390.238 17024439.337 -17323473.195 10 0 61026 23400.00000 0 -9303512.834 18401639.501 -15054254.292 10 0 61026 24300.00000 0 -10436272.736 19670607.837 -12493385.164 10 0 61026 25200.00000 0 -11255807.846 20771030.256 -9690535.479 10 0 61026 26100.00000 0 -11775679.226 21646092.827 -6700027.723 10 0 61026 27000.00000 0 -12021040.611 22244911.611 -3579790.818 10 0 61026 27900.00000 0 -12027330.751 22524733.284 -390246.074 10 0 61026 28800.00000 0 -11838544.412 22452814.971 2806853.618 10 0 61026 29700.00000 0 -11505155.162 22007904.846 5949609.574 10 0 61026 30600.00000 0 -11081777.403 21181261.547 8977165.909 10 0 61026 31500.00000 0 -10624665.829 19977169.347 11830878.601 10 0 61026 32400.00000 0 -10189157.187 18412926.850 14455443.153 10 0 61026 33300.00000 0 -9827161.620 16518308.509 16799959.696 10 0 61026 34200.00000 0 -9584808.843 14334520.068 18818915.483 10 0 61026 35100.00000 0 -9500348.104 11912689.763 20473066.246 10 0 61026 36000.00000 0 -9602390.476 9311956.293 21730199.669 10 0 61026 36900.00000 0 -9908567.972 6597231.270 22565766.223 10 0 61026 37800.00000 0 -10424666.903 3836727.411 22963364.995 10 0 61026 38700.00000 0 -11144273.258 1099353.592 22915074.579 10 0 61026 39600.00000 0 -12048946.770 -1547916.242 22421621.837 10 0 61026 40500.00000 0 -13108918.229 -4042591.882 21492384.166 10 0 61026 41400.00000 0 -14284282.697 -6329027.956 20145223.980 10 0 61026 42300.00000 0 -15526640.239 -8360499.182 18406157.199 10 0 61026 43200.00000 0 -16781116.599 -10100903.179 16308860.832 10 0 61026 44100.00000 0 -17988679.792 -11526019.479 13894027.938 10 0 61026 45000.00000 0 -19088655.390 -12624271.708 11208581.592 10 0 61026 45900.00000 0 -20021334.300 -13396960.810 8304762.551 10 0 61026 46800.00000 0 -20730562.226 -13857959.517 5239108.264 10 0 61026 47700.00000 0 -21166200.248 -14032881.306 2071343.538 10 0 61026 48600.00000 0 -21286351.042 -13957759.667 -1136794.662 10 0 61026 49500.00000 0 -21059255.000 -13677294.655 -4322774.150 10 0 61026 50400.00000 0 -20464774.548 -13242742.430 -7424500.877 10 0 61026 51300.00000 0 -19495402.647 -12709538.900 -10381543.078 10 0 61026 52200.00000 0 -18156751.913 -12134759.973 -13136320.787 10 0 61026 53100.00000 0 -16467503.259 -11574527.782 -15635236.191 10 0 61026 54000.00000 0 -14458816.110 -11081474.228 -17829721.855 10 0 61026 54900.00000 0 -12173225.266 -10702370.316 -19677185.954 10 0 61026 55800.00000 0 -9663071.247 -10476022.176 -21141836.076 10 0 61026 56700.00000 0 -6988530.451 -10431522.748 -22195366.105 10 0 61026 57600.00000 0 -4215327.998 -10586932.543 -22817493.735 10 0 61026 58500.00000 0 -1412228.975 -10948444.298 -22996339.343 10 0 61026 59400.00000 0 1351587.439 -11510065.647 -22728640.272 10 0 61026 60300.00000 0 4009162.299 -12253832.004 -22019797.714 10 0 61026 61200.00000 0 6498291.068 -13150539.535 -20883756.633 10 0 61026 62100.00000 0 8763853.853 -14160966.515 -19342722.097 10 0 61026 63000.00000 0 10759846.679 -15237531.058 -17426718.405 10 0 61026 63900.00000 0 12451031.504 -16326315.281 -15173000.047 10 0 61026 64800.00000 0 13814138.611 -17369370.933 -12625326.193 10 0 61026 65700.00000 0 14838573.601 -18307209.976 -9833112.685 10 0 61026 66600.00000 0 15526601.673 -19081376.121 -6850477.724 10 0 61026 67500.00000 0 15893003.420 -19636989.993 -3735199.288 10 0 61026 68400.00000 0 15964218.112 -19925161.779 -547603.861 10 0 61026 69300.00000 0 15777011.491 -19905170.662 2650592.630 10 0 61026 70200.00000 0 15376724.692 -19546319.943 5797469.946 10 0 61026 71100.00000 0 14815178.067 -18829390.123 8832092.569 10 0 61026 72000.00000 0 14148317.944 -17747628.725 11695680.283 10 0 61026 72900.00000 0 13433704.895 -16307234.707 14332738.417 10 0 61026 73800.00000 0 12727948.635 -14527316.053 16692126.535 10 0 61026 74700.00000 0 12084196.907 -12439320.859 18728045.462 10 0 61026 75600.00000 0 11549783.512 -10085963.815 20400924.036 10 0 61026 76500.00000 0 11164134.172 -7519690.809 21678188.740 10 0 61026 77400.00000 0 10957018.368 -4800743.481 22534901.359 10 0 61026 78300.00000 0 10947221.079 -1994902.162 22954252.181 10 0 61026 79200.00000 0 11141691.141 829000.941 22927898.659 10 0 61026 80100.00000 0 11535203.190 3601696.532 22456142.236 10 0 61026 81000.00000 0 12110548.900 6256113.608 21547938.815 10 0 61026 81900.00000 0 12839251.047 8729926.716 20220741.414 10 0 61026 82800.00000 0 13682771.954 10967909.441 18500176.673 10 0 61026 83700.00000 0 14594166.779 12923996.127 16419560.105 10 0 61026 84600.00000 0 15520113.010 14562965.562 14019258.258 10 0 61026 85500.00000 0 16403231.090 15861675.782 11345909.214 99